Flag for Egypt Weather past 2 weeks in Al Jizah, Egypt

Now
84 °F

Clear.


Feels Like: 83 °F
Forecast: 69 / 93 °F
Wind: 9 mph from North

Location: Cairo Airport

Current Time: Jul 2, 2015 at 7:36:13 PM

Latest Report: Jul 2, 2015 at 7:00 PM


Visibility: 10 mi

Pressure: 29.92 "Hg

Humidity: 40%

Dew point: 57 °F

Location of Al JizahLocation

Historic Weather in Al Jizah — Graph

°F

Al Jizah temperature yesterday

Maximum temperature yesterday: 88 °F (at 3:30 PM)
Minimum temperature yesterday: 70 °F (at 5:30 AM)
Average temperature yesterday: 79 °F

Past Weeks' High & Low Weather Summary

 TemperatureHumidityPressure
High102 °F (Jun 18, 5:00 PM)88% (Jun 26, 6:00 AM)30.01 "Hg (Jun 26, 6:00 AM)
Low70 °F (Jun 24, 5:30 AM)11% (Jun 27, 2:30 PM)29.59 "Hg (Jun 27, 2:00 PM)
Average81 °F50%29.86 "Hg
* Reported Jun 17 6:00 PM — Jul 2 6:30 PM, Al Jizah, Weather by CustomWeather, © 2015

Note: Actual official high and low records may vary slightly from our data, if they occured in-between our weather recording intervals... More about our weather records

Advertising

Al Jizah weather history for previous 24 hours

 ConditionsComfort  
Time TempWeatherWind HumidityBarometerVisibility
6:30 PM
Thu, Jul 2
84 °FSunny.9 mph40%29.92 "Hg10 mi
6:00 PM86 °FSunny.9 mph33%29.89 "Hg10 mi
5:30 PM86 °FSunny.10 mph33%29.89 "Hg10 mi
5:00 PM88 °FSunny.12 mph33%29.89 "Hg10 mi
4:30 PM88 °FSunny.9 mph33%29.89 "Hg10 mi
4:00 PM88 °FSunny.8 mph35%29.89 "Hg10 mi
3:30 PM88 °FSunny.9 mph33%29.89 "Hg10 mi
3:00 PM88 °FSunny.9 mph33%29.89 "Hg10 mi
2:30 PM88 °FSunny.9 mph35%29.89 "Hg10 mi
2:00 PM88 °FSunny.15 mph33%29.89 "Hg10 mi
1:30 PM88 °FSunny.10 mph31%29.89 "Hg10 mi
1:00 PM86 °FSunny.10 mph33%29.92 "Hg10 mi
12:30 PM86 °FSunny.10 mph33%29.92 "Hg10 mi
12:00 PM86 °FSunny.10 mph35%29.92 "Hg10 mi
11:30 AM84 °FSunny.14 mph40%29.92 "Hg10 mi
11:00 AM84 °FSunny.14 mph40%29.92 "Hg10 mi
10:30 AM81 °FSunny.7 mph48%29.95 "Hg10 mi
10:00 AM81 °FSunny.7 mph48%29.95 "Hg10 mi
9:30 AM79 °FScattered clouds.7 mph61%29.95 "HgN/A
9:00 AM79 °FScattered clouds.7 mph61%29.95 "HgN/A
8:30 AM75 °FScattered clouds.5 mph74%29.95 "HgN/A
8:00 AM75 °FScattered clouds.5 mph74%29.95 "HgN/A
7:30 AM75 °FClear.6 mph74%29.95 "Hg4 mi
7:00 AM75 °FClear.6 mph74%29.95 "Hg4 mi
6:30 AM72 °FClear.5 mph88%29.95 "Hg4 mi
6:00 AM72 °FClear.5 mph88%29.95 "Hg4 mi
5:30 AM72 °FClear.7 mph88%29.92 "Hg4 mi
5:00 AM72 °FClear.7 mph88%29.92 "Hg4 mi
4:30 AM72 °FClear.6 mph88%29.92 "Hg10 mi
4:00 AM72 °FClear.6 mph88%29.92 "Hg10 mi
3:30 AM72 °FClear.7 mph83%29.92 "Hg10 mi
3:00 AM72 °FClear.7 mph83%29.92 "Hg10 mi
2:30 AM73 °FClear.7 mph78%29.92 "Hg10 mi
2:00 AM73 °FClear.7 mph78%29.92 "Hg10 mi
1:30 AM72 °FClear.8 mph83%29.95 "Hg10 mi
1:00 AM73 °FClear.7 mph78%29.95 "Hg10 mi
12:30 AM73 °FClear.8 mph74%29.95 "Hg10 mi
12:00 AM73 °FClear.8 mph74%29.95 "Hg10 mi
11:00 PM
Wed, Jul 1
75 °FClear.9 mph69%29.95 "Hg10 mi
10:30 PM77 °FClear.9 mph61%29.95 "Hg10 mi
10:00 PM77 °FClear.9 mph61%29.95 "Hg10 mi
9:30 PM79 °FClear.9 mph54%29.95 "Hg10 mi
9:00 PM79 °FClear.9 mph54%29.95 "Hg10 mi
8:30 PM81 °FClear.9 mph48%29.92 "Hg10 mi
8:00 PM81 °FClear.9 mph48%29.92 "Hg10 mi
7:30 PM84 °FClear.10 mph40%29.89 "Hg10 mi
7:00 PM84 °FClear.10 mph40%29.89 "Hg10 mi
Weather by CustomWeather, © 2015

See weather overviewHow to use our weather pages